Location: Newark
(43.0000°N, 1.6781°W)
Time: 08:39:22
(UTC+00:00)

Vanguard 1 - Pass Details

Date: 23 April 2021
Orbit: 649 x 3834 km, 34.2° (Epoch: 04 May)

Event Time Altitude Azimuth Distance (km) Brightness Sun altitude
Rises 20:04:05 0° 282° (WNW) 7,471 16.1 -11.7°
Reaches altitude 10° 20:09:54 10° 273° (W) 6,715 15.3 -12.6°
Maximum altitude 20:27:31 30° 224° (SW) 5,375 13.9 -15.3°
Drops below altitude 10° 20:43:53 10° 173° (S) 6,151 13.7 -17.7°
Enters shadow 20:46:38 - 167° (SSE) 6,468 13.8 -18.1°
